     2              OBSERVATION DATA    GPS                 RINEX VERSION / TYPE
teqc 2000Feb29 Duncan Agnew 20000428 21:00:23UTC            PGM / RUN BY / DATE
                                                            COMMENT
L2: 1 -> 1; 150 -> 5; 250 -> 9                              COMMENT
L2: 1 -> 1; 150 -> 5; 250 -> 9                              COMMENT
L2: 1 -> 1; 150 -> 5; 250 -> 9                              COMMENT
L2: 1 -> 1; 150 -> 5; 250 -> 9                              COMMENT
L2: 1 -> 1; 150 -> 5; 250 -> 9                              COMMENT
Original Marker Name: LAZY                                  COMMENT
Campaign Name: Hector Postseismic                           COMMENT
4-Character Station Name: LAZY                              COMMENT
6-Character Antenna Code: DMRCHT                            COMMENT
Vertical Measurement Point: BCR                             COMMENT
Vertical Offset to Rinex Ref. Point: 0.0348                 COMMENT
Radial Measurement Point: ECF                               COMMENT
Radial Offset to Rinex Ref. Point: 0.1897                   COMMENT
Antenna Height from Field Measurement: 0.9732 m             COMMENT
Additional Antenna Identification Info.:                    COMMENT
Turborogue and Ashtech Choke Ring                           COMMENT
Original XYZ: 0.0000 0.0000 0.0000                          COMMENT
New XYZ position is based on association with SCEC monument COMMENT
E1F2G7O2+0011. Position of that monument is believed to be  COMMENT
valid to within 1 m horizontally; vertical accuracy         COMMENT
should be no worse than 3-times this value.                 COMMENT
                                                            COMMENT
Revised Rinex header created by UCSD GPS archive for        COMMENT
GSAC on 17-Jun-2000 (2000:169) 00:17:50 GMT                 COMMENT
For assistance contact dagnew@ucsd.edu                      COMMENT
or anderson@python.ucsd.edu                                 COMMENT
                                                            COMMENT
LAZY 1980                                                   MARKER NAME
PWS UNIV SOUTHERN CALIFORNIA                                OBSERVER / AGENCY
203 ASHTECH Z-XII3 CD00                                     REC # / TYPE / VERS
379 DORNE-MARGOL. TYPE T                                    ANT # / TYPE
 -2353802.5205 -4718132.9670  3578586.3352                  APPROX POSITION XYZ
        0.9197        0.0000        0.0000                  ANTENNA: DELTA H/E/N
     1     1     0                                          WAVELENGTH FACT L1/2
     7    C1    L1    L2    P1    P2    S1    S2            # / TYPES OF OBSERV
     0                                                      INTERVAL
  2000     3    11    23     6   30.000000                  TIME OF FIRST OBS
  2000     3    11    23    59    0.000000                  TIME OF LAST OBS
                                                            END OF HEADER
 00  3 11 23  6 30.0000000  0  4G24G 5G 6G10
  21398458.766      188630.74949    134142.07247  21398458.685    21398473.772
       238.000         198.000
  20430117.085      134546.20049     93741.67248  20430116.425    20430130.294
       245.000         214.000
  22636393.068     -113239.15549    -76695.10945  22636392.911    22636410.908
       219.000         162.000
  21101151.256      -61187.33549    -41463.90147  21101150.517    21101165.897
       239.000         201.000
 00  3 11 23  7  0.0000000  0  5G30G24G 5G 6G10
  20871835.219      -67962.08549    -49836.36147  20871835.429    20871849.200
       241.000         208.000
  21414326.562      272014.30849    199116.20847  21414325.981    21414340.963
       238.000         199.000
  20440436.951      188777.17949    135999.53848  20440436.270    20440450.231
       245.000         214.000
  22627428.022     -160350.91749   -113405.40745  22627430.766    22627445.341
       206.000         158.000
  21096480.598      -85733.49049    -60590.64547  21096479.391    21096494.669
       239.000         202.000
 00  3 11 23  7 30.0000000  0  5G30G24G 5G 6G10
  20858876.063     -136064.74249   -102903.27547  20858875.611    20858889.504
       242.000         207.000
  21421620.111      310343.41249    228982.97847  21421619.901    21421635.094
       238.000         199.000
  20442244.233      198274.12449    143399.73148  20442243.629    20442257.320
       245.000         215.000
  22609860.376     -252667.18349   -185339.95346  22609860.439    22609878.132
       225.000         173.000
  21083306.940     -154960.91649   -114533.95947  21083305.971    21083320.990
       239.000         203.000
 00  3 11 23  8  0.0000000  0  5G30G24G 5G 6G10
  20850988.148     -177514.94549   -135202.04347  20850987.831    20851001.504
       242.000         207.000
  21433934.897      375057.24249    279409.27847  21433934.746    21433949.667
       238.000         199.000
  20449132.104      234469.77849    171604.10648  20449131.511    20449145.126
       245.000         215.000
  22597281.450     -318771.53649   -236849.64346  22597280.968    22597299.153
       226.000         175.000
  21075221.754     -197448.32549   -147640.89547  21075220.958    21075235.703
       239.000         203.000
 00  3 11 23  8 30.0000000  0  6G30G24G 4G 5G 6G10
  20843192.467     -218480.99849   -167123.55647  20843192.328    20843206.340
       242.000         207.000
  21446289.823      439982.54649    330000.36547  21446289.643    21446304.672
       238.000         199.000
                    290453.02749    193848.28043
       204.000          74.000
  20456120.019      271191.34149    200218.27248  20456119.553    20456133.405
       245.000         215.000
  22584709.547     -384837.19749   -288329.19746  22584708.961    22584726.520
       227.000         177.000
  21067242.002     -239382.21949   -180316.53047  21067240.723    21067256.146
       239.000         203.000
 00  3 11 23  9  0.0000000  0  5G30G24G 5G 6G10
  20835491.734     -258948.47749   -198656.56347  20835491.679    20835505.705
       243.000         208.000
  21458683.360      505110.71849    380749.53647  21458683.363    21458698.439
       238.000         199.000
  20463204.281      308419.29049    229227.03148  20463203.829    20463217.779
       245.000         214.000
  22572143.333     -450872.89649   -339785.38646  22572142.981    22572160.321
       227.000         178.000
  21059365.045     -280775.67649   -212571.04447  21059364.006    21059379.099
       240.000         203.000
 00  3 11 23  9 30.0000000  0  5G30G24G 5G 6G10
  20827902.193     -298831.62449   -229734.25147  20827902.103    20827915.731
       243.000         208.000
  21471129.763      570516.72349    431715.21147  21471129.786    21471145.000
       238.000         199.000
  20470399.773      346231.47849    258691.04348  20470399.327    20470413.141
       246.000         214.000
  22559598.141     -516798.48649   -391155.78246  22559597.236    22559615.243
       227.000         178.000
  21051607.288     -321542.75049   -244337.46947  21051606.186    21051621.278
       240.000         203.000
 00  3 11 23 10  0.0000000  0  5G30G24G 5G 6G10
  20820416.094     -338171.13249   -260388.33147  20820416.106    20820429.746
       243.000         208.000
  21483616.371      636133.87249    482845.39647  21483616.382    21483631.409
       238.000         198.000
  20477695.868      384572.52549    288567.14848  20477695.257    20477709.349
       245.000         214.000
  22547064.502     -582662.77249   -442478.42146  22547063.962    22547081.017
       227.000         178.000
  21043958.842     -361735.30849   -275656.22847  21043957.581    21043972.795
       239.000         203.000
 00  3 11 23 10 30.0000000  0  5G30G24G 5G 6G10
  20813035.103     -376958.46449   -290612.14147  20813035.246    20813048.756
       242.000         208.000
  21496139.203      701941.33949    534123.88347  21496138.863    21496154.523
       239.000         198.000
  20485090.648      423432.15649    318847.34048  20485090.027    20485104.139
       244.000         214.000
  22534544.528     -648455.40949   -493745.20946  22534544.360    22534561.585
       226.000         179.000
  21036421.056     -401346.52949   -306521.99547  21036419.930    21036434.844
       239.000         203.000
 00  3 11 23 11  0.0000000  0  5G30G24G 5G 6G10
  20805753.015     -415225.52249   -320430.54247  20805752.807    20805766.621
       243.000         208.000
  21508692.578      767909.21149    585527.37547  21508692.612    21508707.622
       238.000         198.000
  20492582.468      462801.60449    349524.80448  20492582.201    20492595.992
       245.000         214.000
  22522035.470     -714190.51849   -544967.18446  22522035.010    22522052.140
       227.000         179.000
  21028990.546     -440393.65049   -336948.20747  21028989.543    21029004.281
       239.000         204.000
 00  3 11 23 11 30.0000000  0  5G30G24G 5G 6G10
  20798563.630     -453005.75649   -349869.60347  20798563.664    20798577.261
       242.000         208.000
  21521272.446      834016.33449    637039.37347  21521272.203    21521287.284
       238.000         198.000
  20500167.464      502660.70449    380583.80548  20500166.860    20500180.703
       245.000         214.000
  22509533.913     -779886.01249   -596158.28746  22509533.394    22509549.885
       227.000         180.000
  21021661.005     -478910.44649   -366961.17147  21021659.798    21021674.456
       239.000         203.000
 00  3 11 23 12  0.0000000  0  5G30G24G 5G 6G10
  20791466.607     -490300.46749   -378930.33047  20791466.497    20791480.423
       243.000         209.000
  21533875.107      900243.57049    688644.96747  21533874.849    21533890.039
       237.000         198.000
  20507842.491      542992.88249    412011.44348  20507842.086    20507855.859
       245.000         214.000
  22497038.896     -845547.08349   -647322.55946  22497038.284    22497055.860
       228.000         181.000
  21014429.750     -516910.57549   -396571.54147  21014428.564    21014443.603
       239.000         204.000
 00  3 11 23 12 30.0000000  0  5G30G24G 5G 6G10
  20784456.932     -527136.38749   -407633.57047  20784457.020    20784470.649
       243.000         209.000
  21546496.238      966567.72649    740326.08147  21546496.201    21546511.274
       239.000         198.000
  20515605.706      583788.75149    443800.39248  20515605.212    20515618.869
       245.000         214.000
  22484546.762     -911193.28749   -698475.26246  22484546.023    22484563.231
       228.000         181.000
  21007294.152     -554408.16449   -425790.32547  21007293.024    21007307.964
       239.000         203.000
 00  3 11 23 13  0.0000000  0  5G30G24G 5G 6G10
  20777535.551     -563508.59749   -435975.47447  20777535.651    20777549.393
       243.000         209.000
  21559136.972     1032994.65149    792087.27847  21559136.680    21559151.787
       238.000         197.000
  20523457.674      625050.78349    475952.58348  20523457.346    20523471.104
       245.000         214.000
  22472054.422     -976840.24049   -749628.54646  22472053.821    22472070.945
       228.000         182.000
  21000254.464     -591401.45749   -454616.14447  21000253.147    21000268.134
       239.000         203.000
 00  3 11 23 13 30.0000000  0  5G30G24G 5G 6G10
  20770708.581     -599384.43049   -463930.58947  20770708.808    20770722.113
       244.000         209.000
  21571802.406     1099551.78649    843949.94047  21571802.372    21571817.416
       238.000         197.000
  20531399.504      666785.06649    508472.76448  20531399.118    20531412.856
       245.000         214.000
  22459563.656    -1042479.22549   -800775.62246  22459563.178    22459580.709
       228.000         182.000
  20993316.884     -627858.25649   -483023.92347  20993315.770    20993330.545
       239.000         204.000
 00  3 11 23 14  0.0000000  0  5G30G24G 5G 6G10
  20763978.827     -634749.42449   -491487.64747  20763978.797    20763992.237
       243.000         209.000
  21584493.785     1166245.26549    895918.84147  21584493.396    21584509.113
       238.000         197.000
  20539435.573      709014.58749    541378.84248  20539435.085    20539448.893
       245.000         214.000
  22447075.379    -1108104.75049   -851912.21646  22447074.754    22447091.806
       229.000         182.000
  20986488.731     -663740.05649   -510983.65047  20986487.577    20986502.139
       239.000         204.000
 00  3 11 23 14 30.0000000  0  5G30G24G 5G 6G10
  20757346.239     -669603.66449   -518646.71847  20757346.188    20757359.686
       243.000         209.000
  21597213.168     1233085.83249    948002.35447  21597212.841    21597228.015
       238.000         197.000
  20547567.309      751746.78949    574676.61548  20547566.955    20547580.714
       245.000         214.000
  22434588.095    -1173725.00249   -903044.70446  22434587.019    22434604.846
       227.000         182.000
  20979772.439     -699034.02349   -538485.32547  20979771.267    20979786.111
       239.000         204.000
 00  3 11 23 15  0.0000000  0  5G30G24G 5G 6G10
  20750819.852     -703899.99449   -545371.05447  20750819.916    20750833.269
       243.000         209.000
  21609970.991     1300128.32049   1000243.20847  21609970.928    21609986.188
       238.000         196.000
  20555798.966      795004.19149    608383.63648  20555798.417    20555812.319
       245.000         214.000
  22422106.173    -1239317.46749   -954155.52946  22422105.909    22422122.824
       228.000         183.000
  20973174.984     -733703.59549   -565500.46247  20973173.554    20973188.313
       240.000         204.000
 00  3 11 23 15 30.0000000  0  6G30G17G24G 5G 6G10
  20744410.128     -737583.30349   -571617.70747  20744409.844    20744423.404
       243.000         209.000
                   -565917.50249   -433454.49944                  24448371.242
       209.000         121.000
  21622778.418     1367431.39549   1052687.11447  21622778.062    21622793.327
       237.000         196.000
  20564141.237      838842.94949    642543.65848  20564140.742    20564154.549
       245.000         213.000
  22409640.924    -1304822.17749  -1005197.98046  22409639.849    22409658.119
       228.000         183.000
  20966706.446     -767695.60949   -591987.63047  20966705.352    20966719.827
       239.000         204.000
 00  3 11 23 16  0.0000000  0  6G30G17G24G 5G 6G10
  20738145.935     -770501.47249   -597268.14947  20738146.010    20738159.299
       244.000         209.000
  24431808.826     -652806.87049   -501160.05645  24431809.740    24431837.477
       202.000         138.000
  21635660.395     1435126.58349   1105436.56447  21635660.204    21635675.529
       238.000         196.000
  20572622.156      883410.09849    677271.26048  20572621.840    20572635.800
       245.000         213.000
  22397221.807    -1370084.66949  -1056051.68846  22397221.246    22397238.522
       228.000         183.000
  20960391.776     -800879.22549   -617844.88147  20960390.644    20960405.429
       239.000         204.000
 00  3 11 23 16 30.0000000  0  6G30G17G24G 5G 6G10
  20732008.040     -802756.22949   -622401.65347  20732007.940    20732021.508
       244.000         209.000
  24415327.371     -739421.78749   -568651.72445  24415327.870    24415355.801
       208.000         144.000
  21648594.816     1503097.06249   1158400.52747  21648594.840    21648609.621
       238.000         196.000
  20581218.701      928584.88249    712472.34148  20581218.149    20581231.908
       245.000         213.000
  22384829.904    -1435203.79149  -1106793.66946  22384829.175    22384846.684
       228.000         183.000
  20954205.022     -833390.48849   -643178.22547  20954204.036    20954218.498
       240.000         205.000
 00  3 11 23 17  0.0000000  0  6G30G17G24G 5G 6G10
  20725961.708     -834529.68749   -647160.11447  20725961.665    20725974.886
       243.000         209.000
  24398860.402     -825958.67649   -636082.65745  24398860.300    24398887.200
       210.000         145.000
  21661543.715     1571143.64149   1211423.78947  21661543.655    21661558.599
       237.000         195.000
  20589896.335      974185.95249    748005.59948  20589895.792    20589909.476
       245.000         213.000
  22372434.212    -1500343.21249  -1157551.45346  22372433.776    22372450.365
       227.000         183.000
  20948108.137     -865429.66549   -668143.70647  20948106.857    20948121.479
       240.000         205.000
 00  3 11 23 17 30.0000000  0  6G30G17G24G 5G 6G10
  20720011.558     -865797.64349   -671524.69047  20720011.624    20720024.840
       243.000         209.000
  24382412.609     -912392.54549   -703433.34545  24382410.928    24382437.654
       205.000         142.000
  21674504.915     1639254.95349   1264497.47947  21674504.733    21674519.787
       237.000         195.000
  20598659.303     1020235.28549    783888.14648  20598658.815    20598672.698
       244.000         213.000
  22360044.116    -1565452.87449  -1208286.06046  22360042.994    22360060.667
       228.000         184.000
  20942105.247     -896974.84449   -692724.26047  20942103.933    20942118.639
       239.000         205.000
 00  3 11 23 18  0.0000000  0  6G30G17G24G 5G 6G10
  20714167.102     -896510.22849   -695456.50747  20714167.111    20714180.461
       243.000         210.000
  24365993.175     -998676.87849   -770667.44845  24365992.494    24366019.789
       206.000         144.000
  21687484.279     1707461.85649   1317645.65447  21687484.097    21687499.338
       237.000         195.000
  20607514.312     1066768.43549    820147.69448  20607513.785    20607527.583
       245.000         213.000
  22347670.757    -1630474.48349  -1258952.04846  22347670.260    22347687.389
       230.000         184.000
  20936206.899     -927970.46449   -716876.58447  20936205.786    20936220.065
       240.000         205.000
 00  3 11 23 18 30.0000000  0  6G30G17G24G 5G 6G10
  20708430.117     -926658.11449   -718948.30147  20708430.042    20708443.273
       243.000         210.000
  24349603.960    -1084803.10349   -837778.37345  24349603.740    24349629.370
       211.000         147.000
  21700488.495     1775799.37749   1370895.60947  21700488.105    21700504.013
       238.000         195.000
  20616466.911     1113814.29349    856806.75248  20616466.427    20616480.276
       245.000         213.000
  22335317.379    -1695391.73049  -1309536.71946  22335316.712    22335333.515
       230.000         184.000
  20930420.217     -958379.42349   -740571.77547  20930418.803    20930433.616
       240.000         205.000
 00  3 11 23 19  0.0000000  0  6G30G17G24G 5G 6G10
  20702800.672     -956240.65249   -741999.56947  20702800.599    20702814.064
       244.000         210.000
  24333246.883    -1170759.66249   -904757.08345  24333245.325    24333271.354
       205.000         145.000
  21713520.180     1844280.74149   1424257.65647  21713520.053    21713534.833
       237.000         194.000
  20625517.681     1161376.08949    893867.84147  20625517.371    20625531.176
       245.000         212.000
  22322984.632    -1760200.31749  -1360036.72046  22322984.180    22323000.789
       230.000         185.000
  20924749.149     -988180.72049   -763793.45947  20924748.108    20924762.501
       240.000         205.000
 00  3 11 23 19 30.0000000  0  6G30G17G24G 5G 6G10
  20697279.040     -985256.87349   -764609.55647  20697279.052    20697292.166
       243.000         210.000
  24316921.215    -1256550.08049   -971606.34545  24316919.437    24316946.027
       207.000         145.000
  21726581.079     1912915.66849   1477739.34547  21726580.751    21726596.131
       237.000         194.000
  20634664.453     1209442.54049    931322.16647  20634663.859    20634677.746
       245.000         212.000
  22310669.210    -1824917.48349  -1410465.49546  22310668.705    22310685.350
       231.000         185.000
  20919194.662    -1017369.44249   -786537.81647  20919193.644    20919207.877
       240.000         205.000
 00  3 11 23 20  0.0000000  0  6G30G17G24G 5G 6G10
  20691862.046    -1013723.39749   -786791.20447  20691862.042    20691874.916
       243.000         210.000
  24300626.400    -1342179.25949  -1038329.97045  24300624.967    24300651.695
       204.000         145.000
  21739675.749     1981728.39749   1531359.58847  21739675.566    21739690.779
       236.000         194.000
  20643909.140     1258023.41949    969177.34147  20643908.739    20643922.388
       244.000         212.000
  22298365.563    -1889573.06349  -1460846.25846  22298365.103    22298381.416
       231.000         185.000
  20913754.537    -1045957.22049   -808813.90447  20913753.340    20913767.475
       240.000         205.000
 00  3 11 23 20 30.0000000  0  6G30G17G24G 5G 6G10
  20686548.474    -1041646.19449   -808549.16747  20686548.461    20686561.839
       243.000         210.000
  24284361.203    -1427652.34449  -1104931.91745  24284359.248    24284386.283
       209.000         148.000
  21752804.163     2050718.22849   1585117.82147  21752804.167    21752818.853
       236.000         194.000
  20653253.727     1307129.40949   1007441.69947  20653253.330    20653267.086
       244.000         212.000
  22286071.052    -1954180.49449  -1511189.52446  22286070.315    22286086.663
       230.000         185.000
  20908425.767    -1073959.71049   -830633.91547  20908424.529    20908438.900
       240.000         205.000
 00  3 11 23 21  0.0000000  0  6G30G17G24G 5G 6G10
  20681342.525    -1069003.72049   -829866.66747  20681342.445    20681355.842
       243.000         210.000
  24268128.848    -1512951.91649  -1171398.66345  24268126.955    24268153.799
       207.000         148.000
  21765963.977     2119873.06449   1639004.62847  21765963.827    21765978.853
       237.000         193.000
  20662696.815     1356752.81649   1046109.23447  20662696.463    20662710.073
       244.000         212.000
  22273788.080    -2018727.36849  -1561485.59746  22273787.248    22273803.433
       230.000         186.000
  20903209.304    -1101371.98549   -851994.02647  20903208.170    20903222.101
       240.000         205.000
 00  3 11 23 21 30.0000000  0  6G30G17G24G 5G 6G10
  20676245.188    -1095790.24549   -850739.22747  20676244.983    20676258.248
       243.000         210.000
  24251930.885    -1598071.52649  -1237725.19345  24251929.319    24251954.711
       213.000         148.000
  21779153.975     2189186.69249   1693015.18447  21779153.616    21779168.766
       235.000         193.000
  20672238.954     1406896.77649   1085182.39747  20672238.557    20672252.336
       244.000         212.000
  22261514.903    -2083222.66449  -1611741.49646  22261514.134    22261530.801
       230.000         186.000
  20898107.782    -1128180.32949   -872883.54147  20898106.782    20898120.990
       240.000         205.000
 00  3 11 23 22  0.0000000  0  6G30G17G24G 5G 6G10
  20671255.291    -1122012.03049   -871171.72947  20671255.208    20671268.342
       243.000         210.000
  24235769.195    -1683000.12449  -1303902.87145  24235767.327    24235793.731
       213.000         150.000
  21792370.675     2258640.94149   1747135.31447  21792370.506    21792385.766
       235.000         192.000
  20681878.466     1457552.41149   1124654.26347  20681878.084    20681891.853
       244.000         212.000
  22249251.823    -2147664.56149  -1661955.78646  22249250.554    22249267.828
       231.000         186.000
  20893123.389    -1154373.01749   -893293.34147  20893122.222    20893136.152
       240.000         206.000
 00  3 11 23 22 30.0000000  0  6G30G17G24G 5G 6G10
  20666373.834    -1147664.15849   -891160.34047  20666373.867    20666387.124
       244.000         210.000
  24219644.440    -1767734.54449  -1369929.23845  24219642.990    24219669.181
       210.000         149.000
  21805608.729     2328207.04149   1801342.60247  21805608.831    21805624.004
       235.000         192.000
  20691609.993     1508691.49949   1164502.84647  20691609.497    20691623.272
       244.000         212.000
  22237000.538    -2212044.79349  -1712122.02346  22236999.835    22237016.139
       231.000         187.000
  20888257.807    -1179941.61949   -913216.83447  20888256.621    20888270.861
       240.000         206.000
 00  3 11 23 23  0.0000000  0  6G30G17G24G 5G 6G10
  20661598.607    -1172757.96949   -910713.90147  20661598.413    20661611.646
       243.000         210.000
  24203555.484    -1852281.13649  -1435809.26045  24203553.788    24203579.079
       213.000         150.000
  21818867.486     2397882.04149   1855634.73947  21818867.602    21818882.467
       235.000         192.000
  20701429.973     1560295.69549   1204713.84847  20701429.469    20701443.394
       244.000         211.000
  22224760.769    -2276364.60349  -1762241.17646  22224760.149    22224776.230
       231.000         187.000
  20883510.645    -1204887.89649   -932655.39647  20883509.647    20883523.548
       241.000         206.000
 00  3 11 23 23 30.0000000  0  6G30G17G24G 5G 6G10
  20656925.592    -1197314.74849   -929848.99547  20656925.548    20656938.721
       243.000         210.000
  24187499.236    -1936655.94849  -1501555.42945  24187497.264    24187523.119
       211.000         150.000
  21832145.846     2467659.72949   1910006.88747  21832145.500    21832161.036
       235.000         191.000
  20711338.385     1612364.25249   1245286.68547  20711337.849    20711351.756
       244.000         211.000
  22212530.907    -2340632.14749  -1812319.60946  22212530.175    22212546.240
       231.000         187.000
  20878878.638    -1229228.97349   -951622.38247  20878877.494    20878891.509
       240.000         206.000
 00  3 11 23 24  0.0000000  0  6G30G17G24G 5G 6G10
  20652354.525    -1221335.58549   -948566.46447  20652354.672    20652367.512
       244.000         210.000
  24171473.481    -2020869.51549  -1567175.93045  24171471.948    24171497.327
       211.000         151.000
  21845443.875     2537540.95949   1964459.72447  21845443.634    21845459.045
       234.000         191.000
  20721335.312     1664898.11649   1286222.10447  20721334.848    20721348.729
       244.000         211.000
  22200314.606    -2404828.56249  -1862342.60347  22200313.992    22200330.036
       231.000         188.000
  20874357.388    -1252988.01649   -970135.82647  20874356.294    20874370.190
       241.000         206.000
 00  3 11 23 24 30.0000000  0  6G30G17G24G 5G 6G10
  20647887.154    -1244811.79549   -966859.55447  20647887.285    20647900.168
       243.000         210.000
  24155479.334    -2104917.52449  -1632667.44745  24155477.361    24155503.548
       214.000         152.000
  21858761.979     2607527.90049   2018994.93447  21858761.794    21858777.351
       234.000         191.000
  20731424.114     1717915.04749   1327533.93747  20731423.614    20731437.577
       243.000         211.000
  22188113.067    -2468947.51749  -1912305.24247  22188112.260    22188128.534
       231.000         188.000
  20869944.682    -1276176.73449   -988204.86847  20869943.589    20869957.642
       241.000         206.000
 00  3 11 23 25  0.0000000  0  6G30G17G24G 5G 6G10
  20643524.259    -1267738.90549   -984724.76847  20643524.166    20643537.099
       244.000         210.000
  24139517.248    -2188797.65349  -1698028.15345  24139515.511    24139539.693
       212.000         151.000
  21872102.326     2677631.93449   2073621.38347  21872102.019    21872117.590
       235.000         191.000
  20741606.793     1771425.11849   1369230.03747  20741606.275    20741620.172
       243.000         211.000
  22175927.116    -2532984.46849  -1962203.98347  22175926.356    22175942.942
       231.000         188.000
  20865641.880    -1298787.84649  -1005823.82347  20865640.847    20865654.681
       241.000         206.000
 00  3 11 23 25 30.0000000  0  6G30G17G24G 5G 6G10
  20639266.668    -1290112.39649  -1002158.59447  20639266.573    20639279.659
       244.000         210.000
  24123588.110    -2272504.05949  -1763253.49045  24123586.009    24123611.377
       213.000         151.000
  21885465.044     2747853.09749   2128339.09547  21885464.908    21885480.421
       234.000         191.000
  20751883.675     1825430.04949   1411311.74347  20751883.100    20751897.038
       243.000         210.000
  22163755.237    -2596947.43249  -2012045.07047  22163754.782    22163770.568
       231.000         188.000
  20861449.424    -1320819.08449  -1022990.92447  20861448.190    20861462.158
       240.000         206.000
 00  3 11 23 26  0.0000000  0  6G30G17G24G 5G 6G10
  20635115.579    -1311926.33649  -1019156.40347  20635115.617    20635128.629
       244.000         210.000
  24107692.581    -2356034.38949  -1828341.62945  24107690.473    24107715.744
       212.000         154.000
  21898851.174     2818197.43349   2183152.79247  21898850.821    21898866.523
       234.000         191.000
  20762252.816     1879920.05449   1453771.42647  20762252.112    20762266.216
       243.000         210.000
  22151597.317    -2660836.90449  -2061828.89547  22151596.429    22151612.461
       232.000         188.000
  20857367.831    -1342267.51649  -1039703.89347  20857366.755    20857380.836
       240.000         206.000
 00  3 11 23 26 30.0000000  0  6G30G17G24G 5G 6G10
  20631070.104    -1333185.36649  -1035721.81147  20631069.828    20631082.857
       244.000         210.000
  24091830.040    -2439390.70049  -1893294.14945  24091828.214    24091853.400
       212.000         153.000
  21912260.629     2888663.91649   2238061.66347  21912260.538    21912276.077
       234.000         191.000
  20772711.644     1934881.38849   1496598.38047  20772711.211    20772724.964
       243.000         210.000
  22139450.667    -2724667.59149  -2111566.91347  22139449.888    22139466.152
       231.000         189.000
  20853398.827    -1363124.45449  -1055955.95747  20853397.653    20853411.539
       241.000         207.000
 00  3 11 23 27  0.0000000  0  6G30G17G24G 5G 6G10
  20627129.586    -1353892.65349  -1051857.29247  20627129.445    20627142.354
       244.000         210.000
  24075998.099    -2522586.47049  -1958121.61445  24075996.055    24076020.822
       216.000         154.000
  21925695.001     2959261.53249   2293072.71447  21925695.047    21925710.559
       234.000         190.000
  20783256.869     1990296.57249   1539778.98147  20783256.411    20783270.418
       243.000         210.000
  22127313.434    -2788448.66549  -2161266.26747  22127312.550    22127328.691
       232.000         189.000
  20849542.368    -1383389.98249  -1071747.17947  20849541.273    20849555.219
       241.000         207.000
 00  3 11 23 27 30.0000000  0  6G30G17G24G 5G 6G10
  20623295.999    -1374038.06049  -1067554.94947  20623295.969    20623308.792
       244.000         210.000
  24060196.079    -2605625.64949  -2022827.07645  24060193.095    24060218.773
       216.000         153.000
  21939152.593     3029981.34949   2348178.99147  21939152.491    21939167.807
       233.000         190.000
  20793888.764     2046167.44849   1583314.66347  20793888.281    20793902.253
       243.000         210.000
  22115186.001    -2852178.14049  -2210925.42447  22115185.346    22115201.412
       232.000         189.000
  20845796.787    -1403072.77049  -1087084.32247  20845795.576    20845809.615
       240.000         207.000
 00  3 11 23 28  0.0000000  0  6G30G17G24G 5G 6G10
  20619572.613    -1393604.30749  -1082801.30947  20619572.637    20619585.505
       244.000         210.000
  24044424.406    -2688504.68649  -2087407.73145  24044422.153    24044447.501
       212.000         154.000
  21952633.995     3100826.41649   2403382.87147  21952633.708    21952649.060
       234.000         190.000
  20804606.703     2102490.27449   1627202.51647  20804606.131    20804620.195
       243.000         209.000
  22103071.267    -2915840.84149  -2260532.55047  22103070.613    22103086.562
       232.000         190.000
  20842166.846    -1422147.91249  -1101947.96847  20842165.659    20842179.428
       241.000         207.000
 00  3 11 23 28 30.0000000  0  6G30G17G24G 5G 6G10
  20615964.302    -1412565.92749  -1097576.53647  20615964.335    20615977.230
       244.000         211.000
  24028686.110    -2771208.05049  -2151851.49445  24028685.357    24028708.378
       216.000         155.000
  21966139.432     3171797.50349   2458684.94747  21966139.358    21966154.762
       233.000         190.000
  20815414.546     2159285.74449   1671458.66247  20815414.099    20815428.202
       243.000         209.000
  22090970.346    -2979430.82549  -2310083.01947  22090969.880    22090985.350
       233.000         190.000
  20838656.061    -1440596.80049  -1116323.62947  20838655.059    20838668.867
       241.000         207.000
 00  3 11 23 29  0.0000000  0  6G30G17G24G 5G 6G10
  20612475.491    -1430899.61349  -1111862.46847  20612475.410    20612488.311
       244.000         210.000
  24012985.784    -2853712.70349  -2216140.46445  24012983.697    24013008.796
       215.000         155.000
  21979668.607     3242893.24249   2514084.14847  21979667.943    21979684.188
       234.000         190.000
  20826317.085     2216578.50649   1716102.30047  20826316.501    20826330.815
       243.000         209.000
  22078886.986    -3042928.77549  -2359561.78947  22078886.475    22078902.222
       233.000         190.000
  20835268.799    -1458396.55049  -1130193.47447  20835267.464    20835281.514
       241.000         207.000
 00  3 11 23 29 30.0000000  0  6G30G17G24G 5G 6G10
  20609108.473    -1448593.22449  -1125649.64147  20609108.441    20609121.273
       244.000         210.000
  23997326.688    -2935999.76149  -2280259.85345  23997325.537    23997348.647
       215.000         154.000
  21993221.172     3314112.15149   2569579.32547  21993220.720    21993236.374
       234.000         189.000
  20837317.286     2274384.73849   1761146.05447  20837316.846    20837331.074
       243.000         209.000
  22066825.768    -3106310.05949  -2408949.65447  22066825.225    22066840.869
       233.000         190.000
  20832008.704    -1475528.12549  -1143542.65947  20832007.611    20832021.384
       241.000         207.000
 00  3 11 23 30  0.0000000  0  6G30G17G24G 5G 6G10
  20605862.466    -1465650.77749  -1138941.18247  20605862.378    20605875.246
       244.000         210.000
  23981711.314    -3018058.29649  -2344201.17545  23981709.528    23981733.778
       216.000         156.000
  22006797.450     3385455.90949   2625171.78447  22006797.571    22006813.073
       233.000         189.000
  20848416.453     2332710.90849   1806594.95247  20848415.942    20848430.095
       243.000         209.000
  22054788.827    -3169564.16149  -2458238.41347  22054788.408    22054804.163
       232.000         190.000
  20828876.597    -1491987.24949  -1156367.86347  20828875.440    20828889.263
       241.000         207.000
 00  3 11 23 30 30.0000000  0  6G30G17G24G 5G 6G10
  20602735.669    -1482082.09749  -1151744.75047  20602735.753    20602748.431
       244.000         210.000
  23966141.480    -3099876.54749  -2407955.27545  23966139.807    23966163.410
       215.000         156.000
  22020395.109     3456911.83449   2680851.65147  22020395.018    22020410.981
       233.000         188.000
  20859617.154     2391570.40849   1852459.43447  20859616.518    20859630.722
       243.000         209.000
  22042776.528    -3232688.75849  -2507426.27247  22042776.174    22042791.476
       233.000         190.000
  20825868.912    -1507792.49549  -1168683.55347  20825867.712    20825881.509
       241.000         207.000
 00  3 11 23 31  0.0000000  0  6G30G17G24G 5G 6G10
  20599723.790    -1497909.52649  -1164077.75247  20599723.678    20599736.673
       244.000         210.000
  23950615.162    -3181466.30349  -2471531.33245  23950613.615    23950636.307
       216.000         155.000
  22034012.207     3528469.71649   2736610.96747  22034012.071    22034027.667
       233.000         188.000
  20870915.273     2450942.26549   1898723.16247  20870914.796    20870928.914
       243.000         209.000
  22030789.214    -3295682.07249  -2556511.82747  22030788.702    22030804.379
       233.000         191.000
  20822983.820    -1522953.37549  -1180497.14747  20822982.749    20822996.410
       241.000         207.000
 00  3 11 23 31 30.0000000  0  6G30G17G24G 5G 6G10
  20596823.556    -1513150.26349  -1175953.59347  20596823.606    20596836.416
       244.000         210.000
  23935129.002    -3262844.97749  -2534942.88945  23935126.757    23935151.420
       214.000         156.000
  22047649.110     3600131.85149   2792451.52147  22047649.180    22047664.533
       232.000         188.000
  20882306.915     2510805.63349   1945369.88447  20882306.670    20882320.732
       243.000         209.000
  22018824.047    -3358558.90249  -2605506.62147  22018823.146    22018838.591
       233.000         191.000
  20820217.994    -1537487.53449  -1191822.38747  20820216.864    20820230.615
       241.000         207.000
 00  3 11 23 32  0.0000000  0  6G30G17G24G 5G 6G10
  20594034.440    -1527806.91849  -1187374.31447  20594034.217    20594046.999
       244.000         210.000
  23919680.701    -3344024.32649  -2598199.13745  23919678.871    23919702.778
       217.000         156.000
  22061305.769     3671897.91049   2848373.04947  22061305.776    22061321.396
       232.000         188.000
  20893789.024     2571143.96349   1992386.70147  20893788.721    20893802.795
       243.000         209.000
  22006875.873    -3421346.43749  -2654431.84047  22006875.187    22006890.863
       233.000         191.000
  20817568.982    -1551408.02949  -1202669.45847  20817567.838    20817581.446
       241.000         207.000
 00  3 11 23 32 30.0000000  0  6G30G17G24G 5G 6G10
  20591355.491    -1541884.52149  -1198343.81647  20591355.361    20591368.017
       244.000         210.000
  23904268.120    -3425016.96849  -2661309.91345  23904266.511    23904289.742
       216.000         156.000
  22074985.101     3743782.81649   2904387.19846  22074984.976    22075000.804
       232.000         187.000
  20905358.833     2631943.38549   2039762.82247  20905358.521    20905372.354
       242.000         209.000
  21994940.698    -3484065.62349  -2703303.78747  21994940.210    21994955.402
       233.000         191.000
  20815036.029    -1564718.37549  -1213041.07947  20815034.891    20815048.341
       241.000         207.000
 00  3 11 23 33  0.0000000  0  6G30G17G24G 5G 6G10
  20588786.692    -1555383.38249  -1208862.36047  20588786.740    20588799.551
       244.000         211.000
  23888887.513    -3505841.39649  -2724289.59345  23888885.179    23888909.050
       215.000         157.000
  22088689.475     3815799.49249   2960504.00646  22088689.269    22088704.693
       232.000         186.000
  20917012.740     2693184.88649   2087483.41047  20917012.384    20917026.400
       243.000         208.000
  21983015.220    -3546734.05849  -2752136.20847  21983014.915    21983030.050
       233.000         192.000
  20812618.151    -1577424.23049  -1222941.68247  20812616.825    20812630.531
       241.000         207.000
 00  3 11 23 33 30.0000000  0  6G30G17G24G 5G 6G10
  20586326.089    -1568314.03749  -1218938.14247  20586326.163    20586338.566
       244.000         211.000
  23873539.491    -3586494.21349  -2787135.56745  23873537.934    23873562.109
       217.000         157.000
  22102419.894     3887953.07749   3016727.50846  22102419.703    22102435.588
       232.000         186.000
  20928750.056     2754864.55449   2135545.43247  20928749.588    20928763.683
       242.000         208.000
  21971097.228    -3609362.84749  -2800937.72447  21971096.786    21971112.129
       233.000         192.000
  20810312.563    -1589539.83349  -1232382.33947  20810311.211    20810324.995
       241.000         207.000
 00  3 11 23 34  0.0000000  0  6G30G17G24G 5G 6G10
  20583970.850    -1580690.60349  -1228582.16847  20583970.873    20583983.519
       245.000         211.000
  23858221.437    -3666990.48649  -2849859.55845  23858219.888    23858242.873
       216.000         157.000
  22116172.231     3960221.51849   3073040.51046  22116172.322    22116187.581
       231.000         185.000
  20940568.245     2816969.14949   2183938.56847  20940567.857    20940581.802
       242.000         208.000
  21959186.662    -3671952.71049  -2849708.89947  21959185.942    21959201.584
       234.000         192.000
  20808115.780    -1601083.70349  -1241377.48847  20808114.662    20808128.317
       242.000         207.000
 00  3 11 23 34 30.0000000  0  6G30G17G24G 5G 6G10
  20581717.491    -1592532.00449  -1237809.18947  20581717.543    20581730.140
       244.000         211.000
  23842934.206    -3747323.28349  -2912456.13745  23842931.582    23842955.846
       216.000         157.000
  22129939.829     4032570.30549   3129416.11746  22129939.602    22129955.189
       231.000         185.000
  20952467.280     2879498.72149   2232662.85047  20952466.739    20952481.083
       242.000         208.000
  21947286.911    -3734485.95849  -2898435.96347  21947286.100    21947301.781
       234.000         193.000
  20806027.632    -1612056.71249  -1249927.81647  20806026.518    20806040.120
       241.000         207.000
 00  3 11 23 35  0.0000000  0  6G30G17G24G 5G 6G10
  20579564.982    -1603843.22349  -1246623.08147  20579564.914    20579577.786
       244.000         211.000
  23827679.115    -3827487.78049  -2974921.57545  23827677.212    23827699.229
       218.000         158.000
  22143714.926     4104958.84149   3185822.69846  22143715.005    22143730.513
       231.000         185.000
  20964445.009     2942441.86449   2281709.39247  20964444.497    20964458.803
       242.000         207.000
  21935401.026    -3796946.43649  -2947106.32047  21935400.318    21935415.308
       234.000         193.000
  20804048.948    -1622454.78149  -1258030.13447  20804047.677    20804061.627
       241.000         207.000
 00  3 11 23 35 30.0000000  0  6G30G17G24G 5G 6G10
  20577515.240    -1614614.57049  -1255016.29547  20577515.233    20577528.043
       244.000         211.000
  23812457.198    -3907478.14049  -3037251.35645  23812454.591    23812478.230
       214.000         157.000
  22157494.710     4177371.98749   3242248.46146  22157494.726    22157510.372
       232.000         185.000
  20976500.319     3005792.67949   2331073.60447  20976499.901    20976514.116
       242.000         207.000
  21923533.994    -3859307.58649  -2995699.26947  21923533.214    21923548.779
       234.000         193.000
  20802182.382    -1632263.33749  -1265673.08947  20802181.439    20802194.953
       241.000         207.000
 00  3 11 23 36  0.0000000  0  6G30G17G24G 5G 6G10
  20575575.247    -1624809.08849  -1262960.04047  20575575.276    20575587.881
       245.000         211.000
  23797271.083    -3987279.96749  -3099434.20145  23797268.214    23797293.017
       217.000         158.000
  22171278.968     4249808.38449   3298692.33946  22171278.733    22171294.747
       231.000         185.000
  20988636.097     3069566.40249   2380767.34647  20988635.590    20988649.909
       242.000         207.000
  21911689.181    -3921551.71149  -3044201.03047  21911688.684    21911703.653
       234.000         194.000
  20800435.013    -1641445.42449  -1272827.88447  20800433.799    20800447.259
       241.000         207.000
 00  3 11 23 36 30.0000000  0  6G30G17G24G 5G 6G10
  20573749.238    -1634404.74649  -1270437.14047  20573749.180    20573761.942
       244.000         211.000
  23782126.506    -4066863.73849  -3161447.12745  23782124.378    23782147.528
       214.000         158.000
  22185072.770     4322295.14749   3355175.45346  22185072.754    22185088.366
       231.000         185.000
  21000854.851     3133776.01749   2430800.74247  21000854.381    21000868.804
       242.000         207.000
  21899867.832    -3983672.47949  -3092606.66847  21899867.327    21899882.469
       234.000         194.000
  20798813.446    -1649966.35349  -1279467.49747  20798812.402    20798825.891
       241.000         207.000
 00  3 11 23 37  0.0000000  0  6G30G17G24G 5G 6G10
  20572042.314    -1643374.51349  -1277426.53047  20572042.281    20572055.043
       244.000         211.000
  23767022.045    -4146236.27649  -3223295.46245  23767021.403    23767042.369
       218.000         158.000
  22198884.573     4394876.27749   3411732.10146  22198884.432    22198900.808
       232.000         185.000
  21013157.228     3198425.32649   2481176.75447  21013156.574    21013170.903
       242.000         207.000
  21888068.984    -4045674.93049  -3140920.10747  21888068.246    21888083.677
       234.000         194.000
  20797318.555    -1657821.92949  -1285588.65347  20797317.277    20797331.079
       241.000         207.000
 00  3 11 23 37 30.0000000  0  6G30G17G24G 5G 6G10
  20570458.049    -1651699.98649  -1283913.87847  20570458.118    20570470.828
       244.000         211.000
  23751957.937    -4225397.59349  -3284979.21745  23751956.443    23751978.663
       216.000         158.000
  22212720.708     4467585.33449   3468388.42646  22212720.604    22212736.439
       231.000         185.000
  21025548.711     3263542.70349   2531917.49047  21025547.956    21025562.458
       241.000         206.000
  21876291.033    -4107567.93349  -3189148.27147  21876290.239    21876305.757
       235.000         194.000
  20795949.261    -1665017.43949  -1291195.47847  20795948.125    20795961.590
       241.000         208.000
 00  3 11 23 38  0.0000000  0  6G30G17G24G 5G 6G10
  20568994.416    -1659391.39249  -1289907.13747  20568994.441    20569007.053
       244.000         211.000
  23736934.252    -4304346.42449  -3346497.38945  23736932.464    23736954.899
       217.000         159.000
  22226583.608     4540434.83349   3525154.19546  22226583.636    22226599.596
       231.000         185.000
  21038033.416     3329150.01749   2583040.00147  21038032.843    21038047.464
       241.000         206.000
  21864529.991    -4169372.09949  -3237307.19847  21864529.441    21864544.586
       234.000         194.000
  20794704.198    -1671560.08949  -1296293.57947  20794703.237    20794716.547
       241.000         208.000
 00  3 11 23 38 30.0000000  0  6G30G17G24G 5G 6G10
  20567647.462    -1666469.41049  -1295422.43947  20567647.444    20567660.034
       244.000         211.000
  23721946.934    -4383103.68849  -3407866.31145  23721944.460    23721967.449
       215.000         159.000
  22240472.766     4613422.35449   3582027.50746  22240472.541    22240488.567
       231.000         185.000
  21050609.946     3395239.92649   2634538.55147  21050609.526    21050624.039
       241.000         206.000
  21852784.923    -4231092.43649  -3285400.81447  21852784.142    21852799.365
       235.000         195.000
  20793577.649    -1677479.80249  -1300906.27947  20793576.646    20793589.958
       241.000         208.000
 00  3 11 23 39  0.0000000  0  6G30G17G24G 5G 6G10
  20566417.835    -1672931.05749  -1300457.44747  20566417.905    20566430.349
       244.000         211.000
  23706994.601    -4461676.05649  -3469091.13045  23706993.510    23707015.142
       217.000         160.000
  22254384.036     4686526.21349   3638991.48646  22254383.781    22254399.794
       231.000         184.000
  21063279.482     3461818.48449   2686417.87247  21063279.145    21063293.248
       241.000         206.000
  21841056.691    -4292724.31349  -3333425.50247  21841056.052    21841071.021
       235.000         195.000
  20792566.935    -1682790.96449  -1305044.78947  20792565.686    20792579.371
       241.000         208.000
 00  3 11 23 39 30.0000000  0  6G30G17G24G 5G 6G10
  20565302.282    -1678793.13549  -1305025.25747  20565302.078    20565314.595
       244.000         211.000
  23692080.102    -4540051.08149  -3530162.21945  23692078.266    23692100.247
       217.000         160.000
  22268313.020     4759723.35349   3696028.14446  22268312.798    22268328.671
       231.000         184.000
  21076042.323     3528887.08549   2738679.03747  21076041.700    21076056.138
       241.000         206.000
  21829347.121    -4354258.01149  -3381373.69047  21829346.068    21829361.274
       235.000         195.000
  20791673.579    -1687485.38949  -1308702.73247  20791672.335    20791685.796
       241.000         208.000
 00  3 11 23 40  0.0000000  0  6G30G17G24G 5G 6G10
  20564295.552    -1684083.43249  -1309147.52447  20564295.584    20564308.313
       244.000         211.000
  23677203.251    -4618227.94549  -3591078.86545  23677201.754    23677224.246
       219.000         161.000
  22282254.243     4832984.35749   3753114.56446  22282254.406    22282269.832
       231.000         184.000
  21088890.669     3596405.41949   2791290.64447  21088890.265    21088904.663
       241.000         205.000
  21817657.353    -4415687.47149  -3429240.66147  21817656.621    21817671.443
       235.000         195.000
  20790899.106    -1691555.07949  -1311873.86847  20790898.121    20790911.538
       241.000         208.000
 00  3 11 23 40 30.0000000  0  6G30G17G24G 5G 6G10
  20563398.694    -1688796.30949  -1312819.85747  20563398.575    20563411.376
       245.000         211.000
  23662363.890    -4696207.72849  -3651841.96645  23662361.788    23662384.085
       217.000         161.000
  22296204.401     4906292.53649   3810237.74246  22296204.139    22296220.110
       231.000         183.000
  21101820.931     3664354.16249   2844237.63347  21101820.733    21101835.096
       241.000         205.000
  21805990.301    -4476997.36449  -3477014.46247  21805989.388    21806004.231
       236.000         195.000
  20790241.911    -1695008.33549  -1314564.67047  20790240.736    20790254.066
       242.000         208.000
 00  3 11 23 41  0.0000000  0  6G30G17G24G 5G 6G10
  20562612.658    -1692926.58449  -1316038.21447  20562612.699    20562625.259
       244.000         211.000
  23647564.118    -4773979.28049  -3712442.80845  23647562.893    23647584.490
       218.000         161.000
  22310164.249     4979651.63349   3867400.59846  22310163.915    22310179.931
       230.000         183.000
  21114830.524     3732719.69949   2897509.39647  21114829.927    21114844.189
       241.000         205.000
  21794347.394    -4538180.78649  -3524689.71847  21794346.798    21794361.783
       236.000         195.000
  20789703.825    -1697835.91549  -1316767.93147  20789702.698    20789716.275
       241.000         208.000
 00  3 11 23 41 30.0000000  0  6G30G17G24G 5G 6G10
  20561936.582    -1696479.39049  -1318806.59147  20561936.578    20561949.213
       244.000         211.000
  23632800.940    -4851558.91349  -3772894.12146  23632799.283    23632822.052
       219.000         163.000
  22324137.505     5053081.46649   3924618.57846  22324137.451    22324154.134
       230.000         183.000
  21127916.584     3801487.12349   2951094.32447  21127916.138    21127930.765
       240.000         205.000
  21782728.769    -4599236.59849  -3572265.53847  21782728.101    21782743.075
       236.000         196.000
  20789284.787    -1700037.80649  -1318483.64547  20789283.798    20789297.154
       242.000         208.000
 00  3 11 23 42  0.0000000  0  6G30G17G24G 5G 6G10
  20561373.772    -1699436.67649  -1321110.93547  20561373.897    20561386.452
       244.000         211.000
  23618073.644    -4928949.73349  -3833198.29846  23618071.709    23618093.651
       219.000         163.000
  22338126.820     5126595.45849   3981902.13946  22338126.996    22338142.909
       230.000         182.000
  21141077.832     3870649.58349   3004987.06447  21141077.477    21141091.967
       240.000         204.000
  21771134.699    -4660163.61449  -3619741.00247  21771134.347    21771148.623
       236.000         196.000
  20788981.902    -1701629.46549  -1319723.86147  20788980.768    20788994.166
       242.000         208.000
 00  3 11 23 42 30.0000000  0  6G30G17G24G 5G 6G10
  20560928.847    -1701774.74549  -1322932.77247  20560928.765    20560941.334
       244.000         212.000
  23603382.235    -5006152.26849  -3893355.77046  23603380.590    23603403.023
       219.000         163.000
  22352135.251     5200209.72949   4039263.82846  22352135.249    22352151.401
       230.000         182.000
  21154317.773     3940225.52049   3059201.99647  21154317.391    21154331.984
       240.000         204.000
  21759563.847    -4720968.43449  -3667121.24847  21759563.228    21759578.180
       236.000         197.000
  20788791.687    -1702628.85249  -1320502.56947  20788790.670    20788803.950
       241.000         208.000
 00  3 11 23 43  0.0000000  0  6G30G17G24G 5G 6G10
  20560601.266    -1703495.89049  -1324273.89147  20560601.422    20560614.045
       244.000         212.000
  23588726.652    -5083166.36949  -3953366.40446  23588725.505    23588746.873
       219.000         164.000
  22366164.227     5273931.98949   4096709.66846  22366164.007    22366179.988
       229.000         182.000
  21167637.887     4010222.91149   3113745.33247  21167637.499    21167652.194
       240.000         204.000
  21748015.935    -4781652.52649  -3714407.42647  21748015.222    21748029.888
       236.000         197.000
  20788716.301    -1703024.93849  -1320811.16347  20788715.122    20788728.603
       241.000         208.000
 00  3 11 23 43 30.0000000  0  6G30G17G24G 5G 6G10
  20560391.450    -1704598.45449  -1325133.00147  20560391.657    20560404.016
       245.000         212.000
  23574107.563    -5159988.70149  -4013227.63346  23574105.856    23574128.371
       220.000         164.000
  22380211.090     5347748.63249   4154229.05546  22380210.663    22380226.749
       229.000         182.000
  21181042.148     4080662.21649   3168633.02047  21181041.790    21181056.221
       240.000         204.000
  21736489.322    -4842224.65149  -3761606.34447  21736488.562    21736503.572
       237.000         197.000
  20788756.245    -1702814.93249  -1320647.48247  20788754.994    20788768.437
       241.000         208.000
 00  3 11 23 44  0.0000000  0  6G30G17G24G 5G 6G10
  20560299.304    -1705082.71949  -1325510.32347  20560299.201    20560311.880
       244.000         211.000
  23559529.872    -5236593.63749  -4072919.45846  23559527.459    23559550.137
       220.000         164.000
  22394271.051     5421634.00949   4211801.99046  22394270.719    22394286.677
       229.000         181.000
  21194530.866     4151545.69449   3223866.81147  21194530.472    21194545.068
       239.000         203.000
  21724982.506    -4902692.80549  -3808724.25447  21724982.018    21724996.765
       237.000         197.000
  20788911.812    -1701997.20749  -1320010.25247  20788910.827    20788924.136
       241.000         208.000
 00  3 11 23 44 30.0000000  0  6G30G17G24G 5G 6G10
  20560323.023    -1704957.73049  -1325412.90447  20560323.214    20560335.538
       244.000         211.000
  23544993.409    -5312982.03849  -4132442.56046  23544991.362    23545013.257
       218.000         164.000
  22408339.688     5495564.97549   4269410.46046  22408339.979    22408355.434
       229.000         181.000
  21208104.477     4222875.05749   3279448.04747  21208103.965    21208118.698
       240.000         203.000
  21713495.334    -4963057.87349  -3855761.83747  21713494.870    21713509.265
       236.000         198.000
  20789186.805    -1700551.72749  -1318883.86647  20789185.856    20789199.111
       241.000         208.000
 00  3 11 23 45  0.0000000  0  6G30G17G24G 5G 6G10
  20560461.852    -1704228.18349  -1324844.40247  20560461.958    20560474.433
       244.000         211.000
  23530499.063    -5389148.62749  -4191792.81146  23530497.955    23530519.738
       221.000         165.000
  22422415.934     5569535.49149   4327049.76846  22422415.625    22422431.989
       229.000         181.000
  21221761.951     4294645.00749   3335372.59947  21221761.160    21221776.072
       239.000         203.000
  21702029.241    -5023311.85749  -3902712.85647  21702028.408    21702043.268
       237.000         198.000
  20789586.927    -1698448.92549  -1317245.27747  20789585.899    20789599.273
       242.000         208.000
 00  3 11 23 45 30.0000000  0  6G30G17G24G 5G 6G10
  20560716.480    -1702890.12749  -1323801.74047  20560716.572    20560729.121
       244.000         211.000
  23516051.626    -5465069.40849  -4250951.53046  23516049.758    23516071.209
       221.000         165.000
  22436499.158     5643543.12149   4384717.97446  22436499.365    22436515.165
       229.000         181.000
  21235502.049     4366849.46849   3391635.72947  21235501.668    21235516.115
       239.000         202.000
  21690584.039    -5083456.36949  -3949578.56947  21690583.382    21690598.032
       236.000         198.000
  20790112.490    -1695687.00849  -1315093.09247  20790111.315    20790124.845
       242.000         208.000
 00  3 11 23 46  0.0000000  0  6G30G17G24G 5G 6G10
  20561082.439    -1700966.99949  -1322303.18347  20561082.289    20561095.062
       245.000         211.000
  23501648.944    -5540754.93749  -4309926.95746  23501647.338    23501669.042
       220.000         166.000
  22450589.847     5717589.94449   4442416.72946  22450589.970    22450605.928
       228.000         180.000
  21249319.467     4439460.14549   3448215.39047  21249318.923    21249333.592
       239.000         202.000
  21679160.080    -5143489.07749  -3996357.15247  21679159.370    21679173.748
       236.000         198.000
  20790761.385    -1692276.68449  -1312435.65447  20790760.366    20790773.556
       242.000         208.000
 00  3 11 23 46 30.0000000  0  6G30G17G24G 5G 6G10
  20561557.785    -1698468.87049  -1320356.57047  20561557.820    20561570.300
       244.000         211.000
  23487284.697    -5616238.28549  -4368744.80446  23487281.973    23487304.309
       221.000         166.000
  22464688.831     5791680.68149   4500149.69646  22464688.700    22464705.000
       229.000         180.000
  21263214.002     4512476.16549   3505110.90347  21263213.374    21263228.291
       241.000         202.000
  21667758.040    -5203406.66049  -4043046.02547  21667757.154    21667771.866
       236.000         198.000
  20791531.684    -1688228.76249  -1309281.38547  20791530.563    20791543.885
       241.000         208.000
 00  3 11 23 47  0.0000000  0  6G30G17G24G 5G 6G10
  20562140.698    -1695405.56449  -1317969.56547  20562140.946    20562153.211
       244.000         211.000
  23472956.747    -5691530.48449  -4427413.71846  23472955.161    23472976.022
       222.000         167.000
  22478799.723     5865833.56349   4557931.08646  22478799.811    22478815.904
       228.000         180.000
  21277184.619     4585891.97149   3562317.92347  21277184.272    21277199.084
       240.000         202.000
  21656376.227    -5263217.85049  -4089652.01047  21656375.593    21656389.760
       236.000         198.000
  20792418.734    -1683566.99049  -1305648.79747  20792417.619    20792430.956
       241.000         208.000
 00  3 11 23 47 30.0000000  0  6G30G17G24G 5G 6G10
  20562829.936    -1691783.64249  -1315147.27647  20562830.019    20562842.435
       245.000         212.000
  23458660.571    -5766656.39349  -4485953.07446  23458658.269    23458679.381
       221.000         166.000
  22492921.834     5940045.43549   4615758.43946  22492921.804    22492937.408
       229.000         179.000
  21291229.290     4659696.93149   3619828.18347  21291228.709    21291243.512
       239.000         201.000
  21645013.355    -5322929.39749  -4136180.35147  21645012.710    21645027.063
       236.000         198.000
  20793415.625    -1678328.04449  -1301566.46447  20793414.878    20793428.178
       242.000         208.000
 00  3 11 23 48  0.0000000  0  6G30G17G24G 5G 6G10
  20563628.294    -1687588.23249  -1311878.10747  20563628.396    20563640.833
       245.000         212.000
  23444390.708    -5841643.19449  -4544383.99946  23444388.538    23444410.630
       222.000         166.000
  22507056.067     6014320.94349   4673635.38346  22507056.119    22507071.834
       229.000         179.000
  21305347.932     4733890.75949   3677641.45947  21305347.495    21305362.240
       240.000         201.000
  21633670.942    -5382533.57349  -4182625.03247  21633670.362    21633684.822
       237.000         198.000
  20794523.902    -1672503.85849  -1297028.09447  20794522.881    20794536.157
       242.000         208.000
 00  3 11 23 48 30.0000000  0  6G30G17G24G 5G 6G10
  20564545.209    -1682769.48749  -1308123.23147  20564545.282    20564557.599
       244.000         212.000
  23430151.587    -5916469.32549  -4602689.75146  23430150.255    23430171.179
       222.000         168.000
  22521205.217     6088674.75949   4731573.34546  22521204.614    22521221.472
       228.000         179.000
  21319545.813     4808500.80949   3735779.05547  21319545.486    21319560.251
       240.000         201.000
  21622350.697    -5442021.24949  -4228978.93547  21622349.929    21622364.476
       237.000         199.000
  20795749.122    -1666065.25249  -1292010.96847  20795748.013    20795761.480
       242.000         208.000
 00  3 11 23 49  0.0000000  0  6G30G17G24G 5G 6G10
  20565584.819    -1677306.20549  -1303866.10947  20565584.752    20565597.207
       244.000         212.000
  23415951.412    -5991090.47849  -4660835.77146  23415949.625    23415970.930
       220.000         167.000
  22535371.592     6163119.51949   4789582.16946  22535371.397    22535387.748
       227.000         179.000
  21333822.607     4883525.40749   3794239.67947  21333822.202    21333837.170
       239.000         200.000
  21611054.855    -5501380.57249  -4275232.82847  21611054.528    21611068.838
       237.000         199.000
  20797094.755    -1658993.65849  -1286500.60147  20797093.812    20797106.969
       242.000         208.000
 00  3 11 23 49 30.0000000  0  6G30G17G24G 5G 6G10
  20566749.468    -1671185.96549  -1299097.07147  20566749.596    20566762.099
       245.000         212.000
  23401794.782    -6065482.36349  -4718803.15146  23401794.205    23401813.794
       222.000         167.000
  22549552.431     6237639.90649   4847649.92746  22549552.060    22549568.729
       228.000         178.000
  21348178.897     4958967.64449   3853025.74247  21348178.633    21348193.441
       240.000         200.000
  21599785.952    -5560598.61749  -4321376.63047  21599785.480    21599799.577
       238.000         199.000
  20798564.533    -1651269.80249  -1280481.97347  20798563.544    20798576.819
       242.000         208.000
 00  3 11 23 50  0.0000000  0  6G30G17G24G 5G 6G10
  20568036.052    -1664424.95449  -1293828.73447  20568036.305    20568048.765
       244.000         212.000
  23387686.849    -6139619.07349  -4776571.68046  23387685.132    23387705.903
       219.000         168.000
  22563745.944     6312227.08749   4905769.73346  22563745.824    22563761.290
       228.000         177.000
  21362615.182     5034830.38249   3912139.45747  21362614.630    21362629.472
       239.000         200.000
  21588544.986    -5619670.12949  -4367406.26047  21588544.552    21588558.854
       238.000         200.000
  20800161.203    -1642879.11849  -1273943.74247  20800160.239    20800173.567
       241.000         208.000
 00  3 11 23 50 30.0000000  0  6G30G17G24G 5G 6G10
  20569438.159    -1657056.90849  -1288087.38147  20569438.284    20569450.685
       244.000         212.000
  23373628.932    -6213492.25049  -4834134.86546  23373627.474    23373646.932
       220.000         167.000
  22577948.555     6386861.67649   4963926.47746  22577948.072    22577964.563
       226.000         177.000
  21377127.329     5111091.78749   3971563.82547  21377127.103    21377141.743
       239.000         200.000
  21577331.255    -5678598.13349  -4413324.05647  21577330.785    21577345.089
       239.000         200.000
  20801878.228    -1633856.12449  -1266912.80147  20801877.000    20801890.268
       241.000         208.000
 00  3 11 23 51  0.0000000  0  6G30G17G24G 5G 6G10
  20570946.260    -1649131.70449  -1281911.88247  20570946.420    20570958.755
       244.000         212.000
  23359615.947    -6287129.91049  -4891514.56546  23359614.905    23359635.745
       222.000         168.000
  22592155.954     6461521.93749   5022103.21346  22592155.536    22592171.884
       227.000         177.000
  21391707.911     5187712.72849   4031268.34747  21391707.689    21391722.444
       239.000         200.000
  21566142.723    -5737394.09649  -4459138.97247  21566142.290    21566156.375
       239.000         201.000
  20803708.363    -1624238.49249  -1259418.49847  20803707.353    20803720.634
       242.000         208.000
 00  3 11 23 51 30.0000000  0  6G30G17G24G 5G 6G10
  20572556.695    -1640668.79749  -1275317.39347  20572556.725    20572569.080
       245.000         212.000
  23345640.823    -6360568.45949  -4948739.08546  23345639.210    23345660.576
       221.000         168.000
  22606364.215     6536186.54649   5080283.34046  22606364.170    22606380.132
       226.000         176.000
  21406354.058     5264678.20449   4091241.33347  21406353.780    21406368.496
       239.000         200.000
  21554976.593    -5796072.42349  -4504862.22647  21554975.891    21554990.127
       239.000         201.000
  20805648.586    -1614042.46749  -1251473.50647  20805647.490    20805660.505
       242.000         208.000
 00  3 11 23 52  0.0000000  0  6G30G17G24G 5G 6G10
  20574269.657    -1631667.08549  -1268303.05847  20574269.709    20574282.091
       244.000         211.000
  23331701.442    -6433819.00049  -5005817.13246  23331700.630    23331720.101
       223.000         168.000
  22620575.580     6610867.38149   5138476.11546  22620575.382    22620591.473
       226.000         176.000
  21421063.627     5341976.84849   4151473.92847  21421063.516    21421078.270
       239.000         199.000
  21543831.339    -5854640.86549  -4550499.84947  21543830.896    21543844.812
       239.000         201.000
  20807696.569    -1603280.16149  -1243087.26047  20807695.642    20807708.819
       242.000         208.000
 00  3 11 23 52 30.0000000  0  6G30G17G24G 5G 6G10
  20576089.453    -1622103.97949  -1260851.27147  20576089.570    20576102.134
       244.000         211.000
  23317794.844    -6506897.73549  -5062761.30046  23317793.168    23317813.619
       220.000         168.000
  22634791.692     6685573.90649   5196688.90946  22634791.540    22634807.851
       226.000         175.000
  21435835.983     5419605.65149   4211963.79447  21435835.640    21435850.455
       239.000         199.000
  21532704.598    -5913111.94649  -4596061.60547  21532703.949    21532717.880
       239.000         201.000
  20809852.245    -1591951.86149  -1234259.97847  20809851.300    20809864.423
       242.000         208.000
 00  3 11 23 53  0.0000000  0  6G30G17G24G 5G 6G10
  20578020.775    -1611954.73049  -1252942.75147  20578020.893    20578033.273
       244.000         211.000
  23303921.355    -6579802.30549  -5119569.75446  23303919.882    23303941.006
       223.000         169.000
  22649015.356     6760319.35449   5254932.03346  22649015.283    22649032.213
       226.000         175.000
  21450675.479     5497587.28449   4272728.58447  21450675.217    21450690.549
       239.000         199.000
  21521595.969    -5971487.70249  -4641549.09047  21521595.440    21521609.267
       239.000         202.000
  20812120.424    -1580032.36449  -1224972.02947  20812119.499    20812132.311
       241.000         208.000
 00  3 11 23 53 30.0000000  0  6G30G17G24G 5G 6G10
  20580067.829    -1601197.50949  -1244560.48347  20580067.786    20580080.277
       244.000         211.000
  23290083.899    -6652518.05149  -5176231.09146  23290082.272    23290101.681
       221.000         169.000
  22663247.665     6835110.40649   5313210.68846  22663247.330    22663264.067
       226.000         175.000
  21465586.347     5575943.88949   4333785.56347  21465585.814    21465601.021
       238.000         199.000
  21510508.404    -6029752.71649  -4686950.27147  21510507.945    21510521.821
       239.000         202.000
  20814503.717    -1567507.92349  -1215212.69647  20814502.760    20814515.906
       242.000         208.000
 00  3 11 23 54  0.0000000  0  6G30G17G24G 5G 6G10
  20582231.615    -1589826.44349  -1235699.90247  20582231.628    20582244.274
       244.000         211.000
  23276284.966    -6725030.45549  -5232733.97746  23276283.604    23276303.693
       222.000         169.000
  22677490.396     6909955.95849   5371531.81646  22677490.380    22677506.759
       228.000         175.000
  21480570.395     5654685.12449   4395142.24947  21480570.131    21480585.037
       237.000         198.000
  21499444.229    -6087894.76049  -4732255.63847  21499443.655    21499457.667
       239.000         202.000
  20817003.260    -1554372.54249  -1204977.31047  20817002.309    20817015.633
       241.000         208.000
 00  3 11 23 54 30.0000000  0  6G30G17G24G 5G 6G10
  20584510.932    -1577848.58349  -1226366.49347  20584510.890    20584523.306
       244.000         211.000
  23262524.100    -6797343.92949  -5289081.83946  23262522.711    23262543.162
       222.000         170.000
  22691741.905     6984847.65849   5429888.90246  22691741.674    22691758.256
       228.000         175.000
  21495628.372     5733814.69449   4456801.53747  21495628.016    21495643.240
       237.000         198.000
  21488406.472    -6145898.03149  -4777452.86247  21488405.866    21488419.853
       239.000         202.000
  20819620.731    -1540617.53149  -1194259.09947  20819619.707    20819632.888
       241.000         208.000
 00  3 11 23 55  0.0000000  0  6G30G17G24G 5G 6G10
  20586904.507    -1565270.31349  -1216565.23147  20586904.493    20586917.082
       244.000         211.000
  23248802.143    -6869451.43249  -5345269.22846  23248800.760    23248820.399
       222.000         169.000
  22706001.507     7059781.96449   5488279.18246  22706001.272    22706017.710
       227.000         175.000
  21510760.395     5813333.61249   4518764.21547  21510759.981    21510775.291
       237.000         198.000
  21477399.859    -6203737.67649  -4822522.59847  21477399.046    21477413.173
       239.000         202.000
  20822357.548    -1526235.31649  -1183052.16547  20822356.363    20822369.651
       241.000         208.000
 00  3 11 23 55 30.0000000  0  6G30G17G24G 5G 6G10
  20589411.810    -1552094.28149  -1206298.18247  20589412.077    20589424.254
       244.000         211.000
  23235120.444    -6941348.12549  -5401292.35146  23235118.352    23235139.300
       223.000         170.000
  22720268.775     7134756.47949   5546700.80846  22720268.665    22720285.458
       227.000         175.000
  21525965.219     5893235.22749   4581025.09447  21525964.615    21525979.870
       238.000         197.000
  21466426.845    -6261400.53849  -4867454.57647  21466426.222    21466440.175
       239.000         202.000
  20825214.006    -1511224.49349  -1171355.40947  20825213.055    20825226.064
       242.000         208.000
 00  3 11 23 56  0.0000000  0  6G30G17G24G 5G 6G10
  20592032.964    -1538319.90349  -1195564.89047  20592032.922    20592045.530
       244.000         211.000
  23221479.085    -7013032.68749  -5457150.15446  23221476.956    23221497.420
       222.000         170.000
  22734544.554     7209775.54349   5605157.14046  22734544.362    22734561.166
       227.000         175.000
  21541241.726     5973513.23349   4643579.26647  21541241.379    21541256.594
       236.000         197.000
  21455487.587    -6318886.22249  -4912248.48747  21455487.125    21455500.939
       240.000         202.000
  20828189.757    -1495586.85549  -1159170.22547  20828188.915    20828201.744
       241.000         208.000
 00  3 11 23 56 30.0000000  0  6G30G17G24G 5G 6G10
  20594769.540    -1523938.97849  -1184358.96747  20594769.608    20594781.962
       244.000         211.000
  23207877.834    -7084506.76449  -5512843.97846  23207876.811    23207896.175
       224.000         171.000
  22748827.662     7284833.16749   5663643.51546  22748827.404    22748844.097
       228.000         175.000
  21556590.269     6054169.97949   4706428.55447  21556589.793    21556605.055
       236.000         196.000
  21444582.734    -6376191.14049  -4956901.54247  21444582.295    21444595.824
       240.000         202.000
  20831284.626    -1479323.25349  -1146497.28147  20831283.612    20831296.934
       241.000         208.000
 00  3 11 23 57  0.0000000  0  6G30G17G24G 5G 6G10
  20597624.379    -1508936.85649  -1172668.99147  20597624.501    20597636.917
       244.000         211.000
  23194318.096    -7155762.29349  -5568367.48346  23194316.329    23194336.274
       223.000         171.000
  22763119.225     7359935.69549   5722164.88246  22763119.081    22763135.718
       227.000         175.000
  21572013.139     6135217.49649   4769582.34547  21572012.766    21572027.873
       236.000         196.000
  21433710.999    -6433321.90449  -5001418.89447  21433710.291    21433724.294
       240.000         203.000
  20834499.070    -1462431.09649  -1133334.55347  20834498.077    20834511.240
       241.000         207.000
 00  3 11 23 57 30.0000000  0  6G30G17G24G 5G 6G10
  20600599.675    -1493301.46449  -1160485.56447  20600599.851    20600612.306
       244.000         211.000
  23180800.224    -7226797.88849  -5623719.62946  23180798.897    23180818.085
       224.000         171.000
  22777420.974     7435091.26249   5780727.57346  22777420.740    22777437.163
       226.000         175.000
  21587511.226     6216660.08649   4833043.98347  21587510.927    21587525.898
       236.000         196.000
  21422870.471    -6490288.85749  -5045808.59647  21422869.976    21422883.699
       240.000         203.000
  20837831.420    -1444919.13749  -1119688.85747  20837830.300    20837843.294
       241.000         207.000
 00  3 11 23 58  0.0000000  0  6G30G17G24G 5G 6G10
  20603696.104    -1477029.59249  -1147806.18147  20603695.988    20603708.724
       244.000         211.000
  23167323.548    -7297617.05249  -5678903.13046  23167323.016    23167341.899
       222.000         171.000
  22791732.235     7510296.92649   5839329.30746  22791732.022    22791748.373
       227.000         174.000
  21603085.392     6298502.49949   4896817.17347  21603084.876    21603100.387
       236.000         196.000
  21412058.368    -6547106.29749  -5090081.79647  21412057.781    21412071.565
       240.000         203.000
  20841280.993    -1426791.38849  -1105563.32947  20841280.042    20841293.179
       241.000         207.000
 00  3 11 23 58 30.0000000  0  6G30G17G24G 5G 6G10
  20606914.696    -1460115.57549  -1134626.42647  20606914.680    20606927.166
       244.000         211.000
  23153888.030    -7368220.42949  -5733918.47846  23153885.748    23153906.345
       223.000         172.000
  22806051.659     7585545.69449   5897964.62746  22806052.209    22806067.617
       227.000         174.000
  21618736.873     6380751.20149   4960906.94447  21618736.560    21618751.718
       236.000         195.000
  21401274.436    -6603775.70249  -5134239.63847  21401273.916    21401287.519
       240.000         203.000
  20844850.527    -1408033.24349  -1090946.56847  20844849.521    20844862.590
       241.000         207.000
